Showing default

SIMSAT 1, 26365

Orbit data source: Space-Track

SIMSAT 1, 26365 is a payload satellite owned by Eurockot (CIS) in LEO that was launched on Tue, 16 May 2000 UTC via an ROKOT launch vehicle from the Plesetsk Missile And Space Complex (PKMTR). Payload-class satellites include a variety of spacecraft equipped with specific instruments for various scientific and technological missions. These include communications satellites like Starlink; space stations such as the ISS; scientific satellites like the Hubble; Earth observation satellites from companies like Planet Labs, Umbra, and HawkEye 360; GPS; miniature CubeSats for education and research; and military/defense satellites.

Loading next visibility...
Identifier
26365, 2000-026A
Orbit
LEO
Country
Flag of CISCIS
Related business
Manufacturer
Khrunichev
Mission
Commercial Technology
Bus & Motor
SIMSAT, Unknown motor
Mass
657 kg wet, 657 kg dry
Launch date (UTC)
2000-05-16 (25 years ago)
Launch vehicle
ROKOT
Launch site
Plesetsk Missile And Space Complex (PKMTR)
Object type
Payload
Rocket body
Debris
Shape & HBR
Box + 1 Arm, 1.8 m
Radar Cross Section
9.625 m², Large (>1 m²)

Expand to show TLE details & history
Last TLE update: 13 hours ago

TLE from 13 hours ago
0 SIMSAT 1
1 26365U 00026A   25259.54487683  .00002529  00000-0  95724-4 0  9997
2 26365  86.3385 266.0010 0006059 305.9517  54.1167 15.26391008400623
Epoch: 2025-09-16T13:04Z
TLE epoch observation values (Epoch: 2025-09-16T13:04:37.358Z)
Latitude
0.00001°
Longitude
74.1117°
Altitude
487.354 km
Speed
7.623 km/s
True Right ascension
17h 44m 00s
True Declination
0° 00' 00"
Sunlit
Object was in daylight at epoch
Visualization orbit readout
Latitude
Unknown
Longitude
Unknown
Altitude
Unknown
Speed
Unknown
Apparent Right ascension
Unknown
Apparent Declination
Unknown
Sunlit
N/A
Visualization observer readout
Local Sidereal Time
18:47:44
Azimuth
Unknown
Elevation
Unknown
Doppler factor
Unknown
Orbital elements
Apogee altitude
487.606 km
Perigee altitude
479.291 km
Semi-major axis
6,861.585 km
Eccentricity
0.00061
Inclination
86.3385°
RAAN
266.001°
Arg. of periapsis
305.9517°
True anomaly
54.17298°
Mean anomaly
54.1167°
Eccentric anomaly
54.14484°
Mean motion
3.81862 °/min
Orbital period
94.27 mins
BSTAR
0.000095724
Loading maneuver chart data...
Computing Atmospheric mass density...
Loading historical data...
Loading historical data...
Loading historical data...
Loading historical data...
Loading historical data...
Loading historical data...
Loading historical data...
Other satellites on launch #26 in the year 2000 (2000-05-16 UTC)

Documentation

Showing up to 5 results
|